GFSNW_500_spd_195.txt.gz
Wind_Speed
32 32 31 29 32 31 29 25 25 27 24 25 28 32 34 32 33 32 30 30 29 29 26 21 22 21 20 22 22 22 24 24 23 26 30 30 32 33 31 30 26 22 28 20
33 36 34 31 33 32 30 28 25 26 24 25 24 31 33 37 29 33 31 32 30 30 30 27 23 23 21 22 24 23 23 28 27 23 29 28 29 33 32 33 29 24 27 18
36 35 35 33 32 31 31 30 26 26 26 28 24 26 31 35 41 32 35 32 38 34 32 28 27 26 23 22 23 22 22 22 25 27 27 30 28 31 33 33 32 27 24 17
38 37 36 36 33 32 31 30 29 30 28 27 29 27 28 35 36 44 40 33 33 37 31 29 30 28 25 24 24 23 24 20 22 23 23 25 27 26 30 31 31 30 31 23
42 39 37 35 36 35 33 32 30 31 30 30 30 30 29 34 36 35 34 41 39 36 33 33 31 31 28 24 26 26 24 20 20 18 21 21 23 25 26 29 28 29 32 30
43 42 41 39 35 35 34 33 30 29 29 30 32 28 28 29 28 35 37 40 39 39 36 39 37 34 31 29 29 29 24 23 21 14 20 19 19 21 24 27 27 27 28 29
43 41 40 42 39 38 36 36 34 32 33 35 32 31 30 28 29 31 35 40 42 37 43 41 40 39 33 31 32 31 28 25 23 18 21 18 16 17 19 22 24 24 24 25
47 44 45 45 45 41 38 37 36 35 34 37 39 35 35 34 30 32 33 37 41 43 45 45 42 38 39 37 35 31 29 27 26 23 19 17 16 14 15 16 18 21 20 19
46 46 46 46 45 41 40 38 38 36 37 37 41 42 40 40 37 35 35 33 34 39 38 40 43 39 35 34 33 34 29 28 27 25 22 20 18 12 14 14 13 14 16 16
50 50 49 47 45 44 43 41 42 40 39 39 41 43 43 43 43 43 40 40 39 40 41 41 40 39 35 33 32 34 35 30 31 27 24 17 20 16 12 12 16 11 8 10
51 52 51 51 49 49 48 48 44 44 43 42 42 42 44 44 44 44 46 45 43 44 45 46 45 44 42 40 35 32 31 36 31 28 27 22 20 18 15 13 14 17 15 7
51 52 52 52 53 51 51 49 47 48 47 44 44 45 44 45 45 46 47 50 50 49 48 47 49 48 49 44 40 35 36 34 35 32 27 23 22 21 18 15 15 15 15 16
50 51 53 53 51 51 50 49 49 50 48 44 44 45 45 45 47 50 50 50 52 54 54 53 53 53 53 51 46 42 38 36 36 34 28 27 26 23 20 18 11 13 14 14
55 55 53 54 54 53 53 54 53 53 53 48 45 47 47 49 50 50 52 52 56 56 57 57 53 52 53 53 52 48 43 41 39 36 33 31 31 27 23 21 15 14 14 16
55 56 55 55 54 56 56 56 55 54 54 51 48 48 49 54 56 56 58 59 60 60 60 59 55 54 55 54 56 50 48 45 41 39 37 36 31 28 28 25 23 20 13 12
57 57 58 57 56 56 55 55 56 56 57 57 50 49 52 56 61 62 61 60 62 66 67 65 63 61 63 61 57 52 51 49 47 44 42 41 36 34 31 28 25 22 13 11
55 54 55 55 56 58 59 58 56 60 66 65 60 57 56 61 67 60 60 62 62 63 65 67 66 66 68 71 68 54 56 55 50 48 46 44 41 38 35 31 26 25 18 11
57 56 57 58 60 63 64 61 67 67 66 71 70 67 66 65 67 57 44 46 43 46 48 54 55 57 63 74 63 66 67 65 59 52 52 51 46 42 35 34 30 28 23 16
58 59 60 61 64 66 66 62 61 55 62 67 60 53 50 46 43 40 25 28 31 32 39 41 44 48 61 60 56 65 64 66 64 56 55 55 49 43 39 39 37 32 28 23
62 63 64 63 64 62 61 52 43 33 35 35 22 15 15 23 27 30 29 24 26 24 27 37 49 52 46 44 43 53 61 67 68 61 55 54 52 46 43 42 41 35 32 29
63 61 59 56 54 47 41 33 27 26 27 19 16 21 21 19 19 20 20 19 21 26 29 37 39 38 30 29 42 44 48 58 66 57 58 56 55 50 46 45 46 41 35 34
51 52 43 35 34 31 25 25 27 29 28 22 16 6 10 12 11 13 21 23 25 31 36 39 25 11 14 17 21 32 40 49 54 52 58 56 55 50 49 45 50 44 38 36
33 33 26 24 23 21 24 31 29 23 21 17 13 7 9 12 16 20 24 27 33 38 40 31 21 19 21 22 23 27 34 45 43 47 57 56 53 50 52 40 44 47 43 37
25 25 24 22 23 27 32 30 19 16 13 10 10 9 10 11 15 18 24 29 33 26 25 25 27 25 11 21 24 22 27 24 31 48 55 55 52 47 53 47 38 49 43 42
24 25 24 24 25 25 29 26 18 14 12 13 14 13 14 13 14 15 17 22 27 26 26 28 25 19 15 12 6 12 22 21 25 41 47 46 45 39 37 51 41 44 49 38
25 24 23 22 23 29 28 26 22 17 15 17 16 19 20 19 22 19 16 19 18 24 25 23 18 14 3 8 11 17 16 14 18 23 32 30 33 34 35 40 44 43 39 39
23 22 21 19 23 27 30 28 22 18 10 15 17 19 22 19 19 14 11 9 9 6 9 12 8 6 5 13 16 17 20 22 18 26 25 27 31 36 40 36 34 35 38 38

GFSNW_500_spd_198.txt.gz
Wind_Speed
35 36 38 37 34 35 34 32 33 34 34 32 30 27 27 23 27 31 36 32 30 31 34 29 28 28 28 27 27 28 28 26 22 25 27 27 30 33 32 35 33 34 35 27
37 36 40 38 36 35 34 33 34 32 34 33 32 29 25 24 25 27 35 38 32 40 35 31 27 26 28 28 27 29 29 29 30 22 28 25 28 31 31 32 32 32 35 31
36 36 40 37 37 38 35 34 35 36 36 37 34 31 27 25 23 27 30 39 43 39 39 37 35 35 31 26 27 29 30 27 29 30 29 30 25 30 30 31 33 33 34 33
38 39 41 38 37 37 36 38 37 36 37 38 37 35 28 26 29 27 28 32 37 47 39 34 33 35 31 27 25 27 30 26 28 26 28 25 27 25 26 26 30 31 34 32
38 38 40 39 39 38 38 39 37 37 38 38 38 36 32 31 31 30 32 32 32 39 44 52 39 33 34 31 27 29 31 28 30 22 26 25 25 24 22 23 26 26 30 29
39 39 39 42 41 41 40 38 39 39 40 41 41 39 37 35 33 35 32 33 33 34 35 41 47 43 35 34 33 32 32 30 35 27 27 23 22 22 20 20 21 24 24 26
43 40 43 45 44 44 42 41 41 41 40 42 42 40 39 41 40 38 33 33 32 32 38 39 40 41 42 42 35 37 36 35 36 32 27 22 21 21 19 18 18 19 20 20
42 41 45 46 46 46 43 43 43 43 41 41 41 43 40 41 41 39 39 32 35 37 37 38 38 38 38 36 37 34 35 38 40 37 29 23 20 20 20 16 16 15 15 16
44 45 49 50 49 48 48 47 46 45 43 41 43 45 45 44 44 42 41 39 39 40 39 37 38 37 33 34 38 37 32 34 34 35 33 26 23 22 18 17 14 15 12 10
48 49 49 51 52 51 51 48 47 48 47 44 42 43 50 49 47 46 40 41 43 44 44 43 43 42 38 34 33 31 30 30 31 33 35 27 26 24 22 18 16 15 15 13
47 48 49 52 53 54 52 50 49 49 48 46 46 47 47 50 47 47 45 45 43 46 47 48 47 47 46 42 36 35 35 35 33 32 30 31 30 29 24 20 20 17 16 15
49 50 52 53 54 52 53 50 51 50 48 43 44 45 44 49 48 45 46 48 47 44 47 49 51 51 51 50 47 41 40 38 38 34 31 29 28 28 27 23 19 19 14 12
52 52 53 54 56 56 55 52 53 50 47 44 45 46 47 48 48 47 45 44 46 47 49 51 52 54 54 54 52 49 43 43 42 39 31 30 29 29 28 25 21 22 17 14
57 55 54 54 53 53 52 50 51 50 49 46 43 47 49 50 49 49 48 48 50 49 51 51 49 50 52 54 53 53 50 46 45 43 39 36 34 33 32 27 25 23 23 20
53 53 52 52 54 57 57 55 53 50 51 47 46 46 46 47 49 52 54 54 55 55 54 53 52 52 53 52 54 47 49 49 48 44 43 41 38 38 36 29 30 24 24 25
53 55 54 50 52 53 54 52 48 49 50 48 44 43 44 50 51 53 52 53 55 56 53 52 52 53 56 56 52 47 48 49 49 48 47 45 43 40 40 34 32 29 26 26
51 52 53 52 53 56 57 53 52 52 54 51 47 45 49 56 60 61 60 55 55 58 58 59 58 59 61 61 55 48 51 54 54 52 49 46 46 44 44 40 37 34 29 26
53 54 55 55 55 54 53 55 55 57 57 59 55 54 56 58 62 58 56 56 55 58 56 57 55 56 61 68 54 55 55 58 59 59 53 50 49 47 45 46 41 37 32 30
50 53 53 52 55 55 55 57 59 59 60 60 59 52 53 50 45 43 37 30 28 32 37 40 44 48 59 52 47 47 56 59 58 60 62 59 56 51 49 49 45 41 36 35
49 49 51 53 56 57 58 57 57 58 58 57 46 25 23 28 27 24 25 28 24 26 24 29 34 36 31 29 27 33 48 59 60 66 66 62 59 55 53 52 49 45 42 41
49 50 53 56 59 58 57 55 51 51 47 36 19 14 14 19 22 21 20 20 22 23 25 30 30 24 24 22 25 31 43 49 55 59 62 62 63 60 57 57 53 49 46 45
52 52 53 53 52 52 49 43 34 31 22 16 10 9 10 11 12 17 19 21 24 26 27 34 19 17 14 16 20 22 30 40 48 50 48 50 56 60 59 59 55 51 48 47
51 50 49 46 41 37 37 28 18 18 19 19 15 14 14 13 13 18 21 27 29 34 38 35 25 22 23 23 22 25 29 32 30 33 40 44 42 45 56 61 56 53 50 47
42 39 36 35 30 28 23 21 20 24 26 22 17 15 14 12 17 18 23 27 24 25 24 24 29 34 35 33 22 21 28 37 33 34 32 32 34 38 50 56 52 48 50 48
31 31 29 25 25 24 23 23 26 28 28 22 16 10 12 16 20 20 20 21 21 21 26 32 34 33 27 16 23 26 21 24 19 20 21 25 28 37 38 38 34 37 46 42
27 24 24 25 22 24 24 24 23 27 24 18 18 17 21 24 22 20 19 16 14 19 23 25 25 10 4 1 4 5 4 15 13 24 10 30 22 32 25 32 25 34 29 34
21 21 23 23 21 20 20 23 24 20 19 19 19 20 18 24 21 12 13 14 16 12 15 16 15 9 7 11 11 8 11 21 20 5 16 26 24 30 24 26 23 28 35 37

GFSNW_500_spd_201.txt.gz
Wind_Speed
37 37 37 34 35 34 34 32 33 30 30 32 32 30 32 34 34 32 30 29 29 29 34 31 27 26 32 35 27 29 30 28 25 26 28 28 29 33 34 33 34 32 36 37
37 36 35 34 32 35 35 33 34 32 31 33 33 31 31 34 36 35 32 30 31 31 33 36 36 32 36 31 29 31 33 31 29 24 27 26 25 31 32 31 30 28 34 33
38 39 38 34 34 35 37 35 36 36 34 34 32 32 32 33 36 36 34 33 32 34 33 36 40 37 34 39 37 35 34 29 29 27 27 29 26 30 35 32 28 28 29 31
38 37 39 40 39 38 35 36 37 36 39 36 34 33 34 35 36 38 36 34 33 33 35 37 36 36 38 30 29 30 33 28 29 25 25 28 28 28 29 29 25 26 26 29
39 39 41 41 41 39 39 39 37 37 39 38 37 36 36 39 38 38 39 38 36 36 36 36 37 37 35 37 33 28 31 33 32 24 23 26 24 27 27 26 26 20 21 23
43 44 43 43 43 44 39 37 39 41 42 40 39 38 40 41 41 41 40 39 38 36 38 40 38 36 34 33 37 39 37 33 35 32 31 29 28 24 27 25 26 22 17 18
44 46 44 44 44 42 40 42 43 44 42 40 41 42 42 42 43 43 40 40 41 41 40 40 40 35 33 35 33 36 36 39 41 36 28 28 26 24 26 25 23 21 17 13
45 45 47 46 46 44 45 45 46 45 44 43 44 44 44 44 44 44 44 43 42 43 45 44 45 38 36 35 33 33 34 33 35 37 32 31 22 24 23 24 20 21 17 16
45 45 46 47 45 45 46 45 44 44 45 44 45 44 44 44 44 44 47 48 49 46 44 46 49 47 40 35 32 27 27 30 35 37 34 29 22 24 24 21 23 21 20 15
47 48 47 47 48 49 48 46 48 49 48 46 46 43 42 45 47 48 49 51 49 48 47 46 46 47 47 42 37 34 30 30 31 32 32 22 23 22 25 24 22 21 19 20
50 50 48 50 50 48 46 49 49 51 49 48 50 46 44 45 50 49 48 47 46 47 48 48 48 46 47 47 43 40 37 35 34 33 32 30 27 26 24 24 23 18 20 19
51 51 51 52 50 48 49 50 51 52 51 51 50 47 47 47 50 50 48 46 44 46 46 47 48 49 47 46 45 41 40 39 38 38 35 33 32 30 25 24 23 18 21 17
55 53 53 51 50 50 52 53 51 51 51 49 45 47 47 47 50 50 47 47 48 46 48 48 45 45 45 44 44 43 41 42 42 40 37 36 36 34 30 26 26 21 22 19
52 51 50 50 50 50 51 52 51 51 52 52 48 44 48 52 51 49 45 44 42 42 44 42 42 42 42 41 42 42 41 40 42 43 40 38 39 39 36 34 30 28 25 22
50 49 48 48 50 51 52 51 50 49 51 50 45 44 43 45 44 43 44 43 43 43 44 43 42 42 44 42 43 39 44 44 42 39 42 43 41 41 40 40 36 31 30 28
46 46 48 50 53 55 55 51 53 54 55 53 46 41 45 45 43 44 46 46 47 49 49 49 47 47 50 50 46 44 43 43 46 44 44 44 44 43 43 42 38 35 32 30
48 49 51 54 56 55 52 51 52 49 50 47 43 40 43 47 51 52 54 54 54 53 53 52 51 51 56 58 51 51 51 49 51 52 51 46 45 42 44 47 45 41 36 34
52 53 53 49 48 48 47 48 49 49 46 47 46 43 44 46 49 53 56 58 60 57 57 52 51 53 56 63 47 43 50 56 58 58 55 51 51 50 48 51 51 48 42 38
50 49 49 49 47 47 47 48 48 49 49 50 50 49 50 49 48 45 39 42 43 41 35 39 45 39 36 19 30 36 41 51 55 57 59 59 55 52 51 51 52 52 48 43
46 45 45 45 46 48 48 49 50 51 52 52 50 47 40 39 32 29 29 30 29 29 27 30 33 26 23 22 21 23 29 37 46 51 50 54 59 58 56 54 54 53 50 46
44 44 46 48 48 48 50 52 52 50 46 46 38 30 23 14 15 19 19 20 25 25 21 24 23 20 22 23 25 33 37 41 41 48 47 46 52 53 55 54 57 56 55 51
45 46 46 48 50 50 51 50 47 44 39 29 19 12 12 11 11 14 19 20 22 25 26 27 25 19 19 21 24 28 35 39 38 40 37 36 44 44 48 51 50 58 59 56
47 47 49 50 49 46 46 41 36 30 27 16 8 9 9 11 15 16 19 23 25 26 18 19 20 23 23 25 25 26 28 34 34 34 32 29 28 31 38 39 41 49 58 59
48 49 48 47 42 41 36 29 26 23 22 21 20 14 14 16 20 17 18 21 25 26 25 24 28 30 33 32 28 31 37 39 37 37 34 26 26 24 26 32 33 39 49 58
47 45 39 34 34 29 26 24 23 24 23 26 24 22 19 15 18 21 22 20 21 22 27 26 29 31 26 19 15 13 13 18 23 25 32 32 31 27 22 23 25 32 40 48
39 32 29 29 24 23 24 22 21 22 20 26 25 21 15 12 17 17 19 20 16 23 20 22 23 20 13 9 10 9 9 2 1 4 10 13 26 26 28 23 17 14 26 31
28 24 25 22 19 20 21 18 20 20 18 21 23 18 13 12 17 14 9 12 12 12 15 14 16 6 6 7 6 7 8 7 10 9 6 9 15 19 23 27 17 22 25 24

GFSNW_500_spd_204.txt.gz
Wind_Speed
35 36 35 35 33 31 31 32 30 31 32 31 29 27 27 26 26 27 28 30 32 31 32 31 30 29 32 33 28 27 29 30 21 24 26 27 24 29 33 33 35 31 30 34
36 37 37 36 34 32 30 32 33 33 34 32 30 28 29 29 27 28 28 31 33 34 33 34 32 32 30 32 37 35 35 36 36 28 25 24 20 26 31 31 30 30 26 28
37 38 38 38 36 33 34 35 35 35 35 35 32 31 31 30 29 30 30 32 34 37 36 35 33 31 32 32 32 36 41 34 32 26 21 23 19 24 29 30 30 31 27 23
40 41 40 38 37 35 36 37 39 38 37 38 35 33 34 34 34 32 33 33 35 36 39 38 36 34 33 34 34 33 36 35 30 26 25 22 18 19 27 29 30 29 28 19
45 45 42 39 37 35 38 39 41 39 39 38 36 38 38 36 35 34 35 36 37 38 41 43 41 38 36 32 31 31 34 36 37 27 25 24 24 29 30 30 28 26 27 17
45 44 42 40 38 38 40 39 39 41 39 38 40 41 41 39 40 40 39 40 40 40 42 43 41 39 36 36 29 28 31 34 35 31 31 29 26 26 24 25 25 24 21 17
45 46 43 41 40 40 40 41 40 40 39 39 42 42 40 41 41 41 41 42 43 42 43 42 41 41 40 40 30 32 31 32 38 38 33 32 26 24 25 23 23 22 19 22
46 46 44 42 42 40 41 41 42 40 40 42 43 42 43 43 43 43 42 44 45 45 45 44 42 41 42 42 39 33 32 33 37 38 31 25 24 24 26 24 23 19 19 18
45 44 43 44 43 42 42 43 44 43 43 43 42 42 44 45 45 45 45 45 46 48 48 48 46 44 43 46 43 34 33 35 36 36 31 26 22 24 24 21 25 20 15 18
46 44 45 46 46 45 43 46 44 45 47 44 44 45 46 48 48 48 48 47 49 50 49 48 45 42 42 42 44 39 33 34 37 37 35 26 25 26 22 22 23 19 18 17
47 48 48 48 49 49 47 46 48 47 48 45 45 47 48 48 49 48 45 45 47 48 49 49 48 44 43 43 41 40 36 34 35 38 37 31 29 27 24 23 22 19 19 19
53 51 51 51 51 51 50 50 49 49 47 47 47 47 49 51 47 47 49 50 53 51 51 50 46 43 41 41 43 38 34 32 33 34 34 36 33 33 29 27 23 23 21 23
52 51 50 51 51 51 51 49 48 48 48 49 49 51 50 50 44 42 43 46 49 47 48 45 41 39 38 39 41 43 36 32 32 34 32 35 35 35 33 30 28 26 24 23
52 48 47 48 49 50 48 45 47 48 50 52 48 44 48 49 47 50 51 48 48 45 46 44 40 37 37 36 37 37 38 36 33 33 32 33 37 39 37 34 32 30 28 25
47 45 48 48 48 48 49 47 49 51 52 52 50 50 51 50 47 47 48 47 46 44 43 42 40 39 41 39 38 34 39 39 39 35 37 38 38 43 45 43 41 38 34 32
41 42 45 45 47 47 48 48 51 52 54 54 51 40 42 43 45 48 49 47 46 46 45 43 41 39 46 45 42 39 40 42 46 47 44 42 40 43 46 45 43 44 42 38
41 42 43 43 45 48 50 51 50 46 47 48 45 38 41 43 45 48 50 49 48 48 48 47 47 43 51 51 46 35 43 49 52 52 51 47 46 44 46 49 48 48 48 43
38 40 44 46 47 48 48 49 48 46 44 42 40 40 43 46 48 49 50 51 51 49 48 47 42 36 37 30 23 37 43 53 55 57 58 54 51 51 50 48 49 49 50 48
40 43 46 45 45 47 46 44 44 43 43 42 44 44 45 48 48 48 47 46 42 40 33 29 31 18 13 23 25 28 33 41 45 51 55 57 60 52 51 52 49 50 50 50
43 42 43 42 43 44 44 44 44 45 45 47 47 47 47 47 46 39 38 33 25 23 14 19 19 17 22 23 22 23 25 30 40 44 39 41 45 51 50 50 53 50 51 52
41 42 42 42 41 42 44 45 46 47 48 48 46 46 43 39 32 25 23 19 20 16 18 19 20 17 17 19 22 25 27 28 30 34 35 35 31 33 41 42 45 51 52 51
40 41 42 42 43 45 45 46 48 48 47 45 42 35 31 21 18 16 15 16 18 18 21 19 14 13 16 20 21 26 35 39 41 40 39 38 35 31 30 33 36 44 48 52
40 41 42 44 44 44 47 48 47 46 45 43 33 23 20 18 14 10 15 18 17 19 17 18 17 19 24 26 28 30 35 42 43 41 36 28 27 26 26 28 29 32 41 44
40 42 44 44 46 48 46 44 43 41 37 32 24 19 25 14 10 10 13 16 18 19 24 25 23 26 30 28 21 20 19 19 24 34 43 35 29 26 20 19 25 29 31 38
42 43 44 45 44 44 42 40 35 31 25 22 22 20 24 14 11 10 12 17 19 19 20 23 25 26 18 17 17 19 19 18 17 12 15 29 33 27 22 21 19 28 32 34
42 43 43 42 39 38 36 31 26 24 23 23 20 21 23 16 16 12 11 14 12 14 19 22 23 18 12 12 14 18 17 16 15 10 7 7 16 23 24 24 17 21 29 30
41 39 39 35 31 27 25 22 22 21 20 22 22 20 23 18 14 10 11 10 10 10 13 17 18 16 16 15 13 7 10 14 11 8 13 10 6 14 17 22 17 15 14 15